(291738) = 2005 EX235 = 2006 JF50 = 2008 RQ116 = 2002 TT92

Discovered at Mount Lemmon on 2006-05-02 by Mt. Lemmon Survey.

Orbit

Orbit type: Main Belt

Note: WebGL enabled browser required.

epoch2023-02-25.0
epoch JD2460000.5
perihelion date2019-04-06.92756
perihelion JD2458580.42756
argument of perihelion (°)316.53249
ascending node (°)41.41686
inclination (°)2.47067
eccentricity0.1561088
perihelion distance (AU)2.6325836
Tisserand w.r.t. Jupiter3.2
ΔV w.r.t. Earth (km/sec)10.2
semimajor axis (AU)3.1195769
mean anomaly (°)254.02169
mean daily motion (°/day)0.17887940
aphelion distance (AU)3.607
period (years)5.51
P-vector [x]0.99893654
P-vector [y]-0.02059382
P-vector [z]-0.04125155
Q-vector [x]0.03622926
Q-vector [y]0.90398537
Q-vector [z]0.42602569
absolute magnitude16.25
phase slope0.15
uncertainty0
referenceMPO 745323
observations used238
oppositions16
arc length (days)11579
first opposition used1991
last opposition used2023
residual rms (arc-secs)0.75
perturbers coarse indicatorM-v
perturbers precise indicator003Ek
first observation date used1991-10-01.0
last observation date used2023-06-14.0
computer nameMPCLINUX
JD of orbit computation2456612.750634
perihelion JD uncertainty (days)1.3906E-04
argument of perihelion uncertainty (°)1.5431E-04
ascending node uncertainty (°)1.5128E-04
inclination uncertainty (°)9.0316E-06
eccentricity uncertainty 7.4316E-08
perihelion distance uncertainty (AU)2.3223E-07
Minimum Orbit Intersection Distances (in AU)
for orbit epoch: 2460000.5, reference: E2023-L82
Mercury2.26187
Venus1.90629
Earth1.6278
Mars1.238
Jupiter1.82986
Saturn5.75632
Uranus14.8429
Neptune26.9832

Observations

246 total observations over interval: 1991 10 01.17272 – 2023 06 14.305662
These data are available for download (format description).

Date (UT) J2000 RA J2000 Dec Magn Location Ref
1991 10 01.17272 23 58 32.63 -02 58 47.6 20.4 V 691 – Steward Observatory, Kitt Peak-Spacewatch MPS 263273
1991 10 01.19378 23 58 31.66 -02 58 51.5   691 – Steward Observatory, Kitt Peak-Spacewatch MPS 263273
1991 10 01.21654 23 58 30.63 -02 58 57.2   691 – Steward Observatory, Kitt Peak-Spacewatch MPS 263273
2002 10 01.25464 00 04 34.70 -02 13 45.5 19.2 R 699 – Lowell Observatory-LONEOS MPS 64008
2002 10 01.27222 00 04 34.01 -02 13 51.8   699 – Lowell Observatory-LONEOS MPS 64008
2002 10 01.28979 00 04 33.06 -02 13 53.9   699 – Lowell Observatory-LONEOS MPS 64008
2002 10 01.30733 00 04 32.37 -02 13 58.1   699 – Lowell Observatory-LONEOS MPS 64008
2002 10 04.20380 00 02 24.56 -02 24 30.4 20.2   644 – Palomar Mountain/NEAT MPS 64008
2002 10 04.26602 00 02 21.72 -02 24 43.7 19.8   644 – Palomar Mountain/NEAT MPS 64008
2002 10 04.32813 00 02 18.94 -02 24 56.6 20.1   644 – Palomar Mountain/NEAT MPS 64008
2005 03 10.36157 10 54 49.61 +10 04 24.0 20.2 R G96 – Mt. Lemmon Survey MPS 129360
2005 03 10.36931 10 54 49.35 +10 04 25.9 20.8 R G96 – Mt. Lemmon Survey MPS 129360
2005 03 10.37704 10 54 48.90 +10 04 27.4 20.3 R G96 – Mt. Lemmon Survey MPS 129360
2005 03 10.38478 10 54 48.55 +10 04 29.9 21.9 R G96 – Mt. Lemmon Survey MPS 129360
2006 05 02.29302 14 29 06.86 -14 37 03.9 20.3 V G96 – Mt. Lemmon Survey MPS 172138
2006 05 02.29759 14 29 06.64 -14 37 02.9 21.1 V G96 – Mt. Lemmon Survey MPS 172138
2006 05 02.30203 14 29 06.39 -14 37 01.6 21.4 V G96 – Mt. Lemmon Survey MPS 172138
2006 05 02.30664 14 29 06.18 -14 37 00.9 20.9 V G96 – Mt. Lemmon Survey MPS 172138
2006 05 03.31438 14 28 18.69 -14 33 44.8 20.9 V G96 – Mt. Lemmon Survey MPS 172138
2006 05 03.31974 14 28 18.40 -14 33 44.1 20.6 V G96 – Mt. Lemmon Survey MPS 172138
2006 05 03.32490 14 28 18.19 -14 33 43.3 21.2 V G96 – Mt. Lemmon Survey MPS 172138
2006 05 03.33016 14 28 17.94 -14 33 41.8 20.6 V G96 – Mt. Lemmon Survey MPS 172138
2006 05 26.28272 14 12 03.31 -13 25 18.6 21.4 V G96 – Mt. Lemmon Survey MPS 173974
2006 05 26.28724 14 12 03.16 -13 25 18.5 22.0 V G96 – Mt. Lemmon Survey MPS 173974
2006 05 26.29181 14 12 02.95 -13 25 17.6 21.2 V G96 – Mt. Lemmon Survey MPS 173974
2006 05 26.29646 14 12 02.80 -13 25 17.0 21.1 V G96 – Mt. Lemmon Survey MPS 173974
2008 09 07.39910 03 54 00.97 +20 11 21.4 21.0 V G96 – Mt. Lemmon Survey MPS 263328
2008 09 07.40738 03 54 01.18 +20 11 22.9 21.2 V G96 – Mt. Lemmon Survey MPS 263328
2008 09 07.41566 03 54 01.51 +20 11 24.0 21.2 V G96 – Mt. Lemmon Survey MPS 263328
2008 09 07.42403 03 54 01.72 +20 11 25.4 20.6 V G96 – Mt. Lemmon Survey MPS 263328
2008 09 22.39529 03 59 29.72 +20 38 28.3 20.6 V G96 – Mt. Lemmon Survey MPS 263328
2008 09 22.40696 03 59 29.86 +20 38 29.2 20.5 V G96 – Mt. Lemmon Survey MPS 263328
2008 09 22.41869 03 59 29.94 +20 38 30.0 21.2 V G96 – Mt. Lemmon Survey MPS 263328
2008 09 22.43045 03 59 30.08 +20 38 31.0 20.6 V G96 – Mt. Lemmon Survey MPS 263328
2008 10 20.31801 03 54 10.46 +20 47 38.9 20.4 V 691 – Steward Observatory, Kitt Peak-Spacewatch MPS 263328
2008 10 20.33566 03 54 09.87 +20 47 38.3 20.3 V 691 – Steward Observatory, Kitt Peak-Spacewatch MPS 263328
2008 10 20.35332 03 54 09.28 +20 47 37.3 20.4 V 691 – Steward Observatory, Kitt Peak-Spacewatch MPS 263328
2008 10 24.29086 03 51 48.91 +20 44 20.3 20.1 V 691 – Steward Observatory, Kitt Peak-Spacewatch MPS 263328
2008 10 24.30855 03 51 48.28 +20 44 20.1 20.2 V 691 – Steward Observatory, Kitt Peak-Spacewatch MPS 263328
2008 10 24.32624 03 51 47.57 +20 44 19.0 20.2 V 691 – Steward Observatory, Kitt Peak-Spacewatch MPS 263328
2008 11 01.27089 03 46 07.28 +20 34 21.2 20.4 V 691 – Steward Observatory, Kitt Peak-Spacewatch MPS 267564
2008 11 01.28862 03 46 06.43 +20 34 19.5 20.1 V 691 – Steward Observatory, Kitt Peak-Spacewatch MPS 267564
2008 11 01.30636 03 46 05.55 +20 34 17.9 20.0 V 691 – Steward Observatory, Kitt Peak-Spacewatch MPS 267564
2008 11 18.21567 03 31 34.21 +20 01 14.0 19.2 V 703 – Catalina Sky Survey MPS 265284
2008 11 18.22250 03 31 33.78 +20 01 13.3 19.6 V 703 – Catalina Sky Survey MPS 265284
2008 11 18.22932 03 31 33.38 +20 01 12.0 19.8 V 703 – Catalina Sky Survey MPS 265284
2008 11 18.23618 03 31 32.84 +20 01 11.5 19.7 V 703 – Catalina Sky Survey MPS 265284
2008 11 19.24407 03 30 39.45 +19 58 53.6 19.4 V G96 – Mt. Lemmon Survey MPS 265284
2008 11 19.24966 03 30 39.16 +19 58 52.8 19.5 V G96 – Mt. Lemmon Survey MPS 265284
2008 11 19.25527 03 30 38.88 +19 58 52.1 19.4 V G96 – Mt. Lemmon Survey MPS 265284
2008 11 19.26086 03 30 38.52 +19 58 51.2 19.3 V G96 – Mt. Lemmon Survey MPS 265284
2008 12 21.24677 03 09 09.32 +18 57 37.4 19.6 V G96 – Mt. Lemmon Survey MPS 269283
2008 12 21.25113 03 09 09.28 +18 57 37.4 19.6 V G96 – Mt. Lemmon Survey MPS 269283
2008 12 21.25554 03 09 09.07 +18 57 36.7 20.5 V G96 – Mt. Lemmon Survey MPS 269283
2008 12 21.25998 03 09 09.00 +18 57 36.2 20.7 V G96 – Mt. Lemmon Survey MPS 269283
2010 02 11.510861 08 56 42.733 +20 50 49.05 22.06 g F51 – Pan-STARRS 1, Haleakala MPS 337360
2010 02 11.520112 08 56 42.259 +20 50 50.74 22.09 g F51 – Pan-STARRS 1, Haleakala MPS 337360
2010 02 17.30300 08 52 13.65 +21 06 37.9 21.2 V G96 – Mt. Lemmon Survey MPS 313310
2010 02 17.30892 08 52 13.36 +21 06 38.9 21.7 V G96 – Mt. Lemmon Survey MPS 313310
2010 02 17.31492 08 52 13.11 +21 06 39.7 21.6 V G96 – Mt. Lemmon Survey MPS 313310
2010 02 17.32089 08 52 12.79 +21 06 40.5 21.4 V G96 – Mt. Lemmon Survey MPS 313310
2012 06 12.35510 16 44 50.162 -24 22 45.37 20.5 w F51 – Pan-STARRS 1, Haleakala MPS 427255
2012 06 12.36907 16 44 49.429 -24 22 44.79 20.5 w F51 – Pan-STARRS 1, Haleakala MPS 427255
2012 06 12.38313 16 44 48.669 -24 22 43.84 20.6 w F51 – Pan-STARRS 1, Haleakala MPS 427255
2012 06 12.39708 16 44 47.935 -24 22 42.66 20.5 w F51 – Pan-STARRS 1, Haleakala MPS 427255
2013 09 03.88948 00 08 07.92 -02 17 43.4 19.6 V D00 – ASC-Kislovodsk Observatory MPS 476048
2013 09 03.90063 00 08 07.59 -02 17 45.7 19.8 V D00 – ASC-Kislovodsk Observatory MPS 476048
2013 09 03.91163 00 08 07.13 -02 17 48.2 19.6 V D00 – ASC-Kislovodsk Observatory MPS 476048
2013 09 03.92262 00 08 06.68 -02 17 50.9 20.0 V D00 – ASC-Kislovodsk Observatory MPS 476048
2013 09 04.27059 00 07 53.72 -02 19 09.6 19.4 R H15 – ISON-NM Observatory, Mayhill MPS 476048
2013 09 04.28094 00 07 53.29 -02 19 12.8 19.8 R H15 – ISON-NM Observatory, Mayhill MPS 476048
2013 09 04.29141 00 07 52.88 -02 19 14.7 19.5 R H15 – ISON-NM Observatory, Mayhill MPS 476048
2013 09 04.30197 00 07 52.44 -02 19 17.5 19.7 R H15 – ISON-NM Observatory, Mayhill MPS 476048
2013 09 06.34046 00 06 33.74 -02 27 06.8 19.6 V 703 – Catalina Sky Survey MPS 477584
2013 09 06.34770 00 06 33.56 -02 27 08.9 19.7 V 703 – Catalina Sky Survey MPS 477584
2013 09 06.35513 00 06 33.14 -02 27 11.8 20.0 V 703 – Catalina Sky Survey MPS 477584
2013 09 06.36252 00 06 32.85 -02 27 11.8 19.1 V 703 – Catalina Sky Survey MPS 477584
2013 09 06.36830 00 06 32.73 -02 27 12.7 18.9 V G96 – Mt. Lemmon Survey MPS 477584
2013 09 06.37362 00 06 32.43 -02 27 15.1 19.5 V G96 – Mt. Lemmon Survey MPS 477584
2013 09 06.37897 00 06 32.21 -02 27 16.4 19.3 V G96 – Mt. Lemmon Survey MPS 477584
2013 09 06.38426 00 06 32.00 -02 27 17.6 19.5 V G96 – Mt. Lemmon Survey MPS 477584
2013 09 09.44180 00 04 27.864 -02 39 29.28 19.7 w F51 – Pan-STARRS 1, Haleakala MPS 477584
2013 09 09.49073 00 04 25.720 -02 39 41.18 19.7 w F51 – Pan-STARRS 1, Haleakala MPS 477584
2013 09 15.28777 00 00 14.44 -03 03 39.5 19.9 V 703 – Catalina Sky Survey MPS 477584
2013 09 15.29338 00 00 14.15 -03 03 42.3 19.7 V 703 – Catalina Sky Survey MPS 477584
2013 09 15.29895 00 00 13.97 -03 03 42.8 20.0 V 703 – Catalina Sky Survey MPS 477584
2013 09 15.30458 00 00 13.66 -03 03 44.6 20.0 V 703 – Catalina Sky Survey MPS 477584
2013 09 29.46622 23 49 33.565 -04 00 20.93 19.9 w F51 – Pan-STARRS 1, Haleakala MPS 479908
2013 09 29.47943 23 49 32.960 -04 00 23.83 19.8 w F51 – Pan-STARRS 1, Haleakala MPS 479908
2013 09 29.74260 23 49 21.38 -04 01 21.7 19.9 R D29 – Purple Mountain Observatory, XuYi Station MPS 487025
2013 09 29.75851 23 49 20.71 -04 01 25.8 19.8 R D29 – Purple Mountain Observatory, XuYi Station MPS 487025
